Chatham, MA

4:16 PM EDT on May 28, 2017 (GMT -0400)
Chatham Municipal

Weather History for KCQX - August, 2012

Change the Weather History Date:

Wednesday, August 15, 2012

  Actual Average Record
Temperature  
Mean Temperature 72 °F -  
Max Temperature 78 °F 75 °F 86 °F (2016)
Min Temperature 66 °F 61 °F 52 °F (1972)
Cooling Degree Days 7    
Growing Degree Days 22 (Base 50)    
Moisture  
Dew Point 69 °F    
Average Humidity 92    
Maximum Humidity 100    
Minimum Humidity 74    
Precipitation  
Precipitation 0.16 in - - ()
Sea Level Pressure  
Sea Level Pressure 29.91 in    
Wind  
Wind Speed 2 mph (SSE)    
Max Wind Speed 12 mph    
Max Gust Speed -    
Visibility 6 miles    
Events Fog , Rain , Thunderstorm    
Averages and records for this station are not official NWS values.
T = Trace of Precipitation, MM = Missing Value Source: NWS Daily Summary

Daily Weather History Graph

Daily Weather History Graph

Search for Another Location

Airport or City:

Trip Planner

Search our weather history database for the weather conditions in past years. The results will help you decide how hot, cold, wet, or windy it might be!

Date:

Astronomy

Aug. 15, 2012 Rise Set
Actual Time 5:48 AM EDT 7:39 PM EDT
Civil Twilight 5:18 AM EDT 8:08 PM EDT
Nautical Twilight 4:42 AM EDT 8:45 PM EDT
Astronomical Twilight 4:03 AM EDT 9:24 PM EDT
Moon 3:41 AM EDT (8/15) 6:10 PM EDT (8/15)
Length of Visible Light 14h 49m
Length of Day
13h 50m
Waning Crescent, 4% of the Moon is Illuminated
Aug 15
Waning Crescent
Aug 17
New
Aug 24
First Quarter
Aug 31
Full
Sep 8
Last Quarter

Hourly Weather History & Observations

Time (EDT) Temp. Dew Point Humidity Pressure Visibility Wind Dir Wind Speed Gust Speed Precip Events Conditions
12:52 AM 72.0 °F 69.1 °F 91% 29.96 in 10.0 mi SW 3.5 mph - N/A   Clear
1:52 AM 73.9 °F 70.0 °F 87% 29.95 in 10.0 mi SW 4.6 mph - N/A   Partly Cloudy
2:33 AM 73.4 °F 69.8 °F 88% 29.94 in 10.0 mi Calm Calm - N/A   Scattered Clouds
2:52 AM 73.0 °F 71.1 °F 93% 29.94 in 10.0 mi Calm Calm - N/A   Mostly Cloudy
3:05 AM 71.6 °F 69.8 °F 94% 29.93 in 8.0 mi Calm Calm - N/A   Scattered Clouds
3:23 AM 71.6 °F 69.8 °F 94% 29.93 in 3.0 mi Calm Calm - N/A   Mostly Cloudy
3:29 AM 71.6 °F 69.8 °F 94% 29.93 in 1.8 mi Calm Calm - N/A   Mostly Cloudy
3:42 AM 69.8 °F 69.8 °F 100% 29.92 in 0.5 mi Calm Calm - N/A Fog Fog
3:50 AM 69.8 °F 69.8 °F 100% 29.91 in 0.2 mi Calm Calm - N/A Fog Fog
3:52 AM 70.0 °F 70.0 °F 100% 29.92 in 0.2 mi Calm Calm - N/A Fog Fog
4:00 AM 69.8 °F 69.8 °F 100% 29.91 in 0.5 mi Calm Calm - N/A Fog Fog
4:52 AM 68.0 °F 68.0 °F 100% 29.91 in 0.5 mi South 3.5 mph - N/A Fog Fog
5:10 AM 68.0 °F 66.2 °F 94% 29.91 in 0.2 mi South 3.5 mph - N/A Fog Fog
5:52 AM 66.0 °F 64.9 °F 96% 29.92 in 0.2 mi Variable 3.5 mph - N/A Fog Fog
6:52 AM 66.9 °F 66.0 °F 97% 29.92 in 0.5 mi Calm Calm - 0.01 in Fog Fog
7:03 AM 66.2 °F 66.2 °F 100% 29.92 in 1.8 mi SE 4.6 mph - N/A   Overcast
7:16 AM 66.2 °F 66.2 °F 100% 29.92 in 3.0 mi SSE 3.5 mph - N/A   Mostly Cloudy
7:28 AM 68.0 °F 66.2 °F 94% 29.93 in 9.0 mi SSE 3.5 mph - N/A   Scattered Clouds
7:52 AM 68.0 °F 66.0 °F 93% 29.94 in 10.0 mi Calm Calm - N/A   Clear
8:52 AM 73.9 °F 66.0 °F 76% 29.93 in 10.0 mi SSE 5.8 mph - N/A   Clear
9:52 AM 75.9 °F 66.9 °F 74% 29.94 in 10.0 mi Variable 5.8 mph - N/A   Partly Cloudy
10:52 AM 72.0 °F 66.9 °F 84% 29.96 in 10.0 mi South 5.8 mph - N/A   Mostly Cloudy
11:14 AM 69.8 °F 68.0 °F 94% 29.95 in 7.0 mi South 3.5 mph - 0.03 in Rain Light Rain
11:32 AM 69.8 °F 68.0 °F 94% 29.93 in 2.0 mi SE 5.8 mph - 0.10 in Rain Heavy Rain
11:44 AM 69.8 °F 68.0 °F 94% 29.92 in 4.0 mi ESE 4.6 mph - 0.12 in Rain Rain
11:52 AM 71.1 °F 68.0 °F 90% 29.93 in 2.5 mi SE 4.6 mph - 0.12 in Rain Light Rain
12:08 PM 73.4 °F 69.8 °F 88% 29.93 in 10.0 mi Variable 3.5 mph - 0.00 in   Mostly Cloudy
12:52 PM 75.0 °F 69.1 °F 82% 29.92 in 10.0 mi SE 5.8 mph - 0.00 in   Mostly Cloudy
1:02 PM 77.0 °F 69.8 °F 78% 29.91 in 10.0 mi SSE 6.9 mph - N/A   Scattered Clouds
1:52 PM 77.0 °F 69.1 °F 76% 29.91 in 10.0 mi SSE 11.5 mph - N/A   Clear
2:52 PM 78.1 °F 71.1 °F 79% 29.90 in 10.0 mi SSW 4.6 mph - N/A   Clear
3:52 PM 75.9 °F 71.1 °F 85% 29.89 in 10.0 mi South 4.6 mph - N/A   Clear
4:52 PM 75.0 °F 70.0 °F 84% 29.90 in 10.0 mi Variable 4.6 mph - N/A   Clear
5:00 PM 73.4 °F 69.8 °F 88% 29.89 in 10.0 mi Calm Calm - N/A   Scattered Clouds
5:08 PM 75.2 °F 71.6 °F 89% 29.89 in 10.0 mi South 3.5 mph - N/A   Mostly Cloudy
5:52 PM 75.0 °F 71.1 °F 87% 29.89 in 10.0 mi Variable 3.5 mph - N/A   Overcast
6:29 PM 73.4 °F 69.8 °F 88% 29.87 in 10.0 mi Calm Calm - N/A   Mostly Cloudy
6:41 PM 73.4 °F 69.8 °F 88% 29.87 in 10.0 mi Calm Calm - N/A   Scattered Clouds
6:52 PM 72.0 °F 69.1 °F 91% 29.88 in 10.0 mi Calm Calm - N/A   Scattered Clouds
7:01 PM 71.6 °F 69.8 °F 94% 29.88 in 10.0 mi South 3.5 mph - N/A   Mostly Cloudy
7:30 PM 71.6 °F 69.8 °F 94% 29.88 in 7.0 mi Calm Calm - N/A   Overcast
7:43 PM 71.6 °F 69.8 °F 94% 29.88 in 1.8 mi Calm Calm - N/A   Overcast
7:52 PM 71.1 °F 70.0 °F 96% 29.88 in 1.5 mi Calm Calm - N/A   Overcast
7:55 PM 71.6 °F 69.8 °F 94% 29.88 in 3.0 mi Calm Calm - N/A   Overcast
8:29 PM 69.8 °F 69.8 °F 100% 29.88 in 1.8 mi Calm Calm - N/A   Overcast
8:43 PM 69.8 °F 69.8 °F 100% 29.88 in 0.5 mi Calm Calm - N/A Fog Fog
8:52 PM 70.0 °F 69.1 °F 97% 29.89 in 0.8 mi Calm Calm - N/A   Mist
9:02 PM 69.8 °F 69.8 °F 100% 29.89 in 1.5 mi Calm Calm - N/A   Overcast
9:10 PM 71.6 °F 69.8 °F 94% 29.89 in 3.0 mi Calm Calm - N/A   Overcast
9:30 PM 71.6 °F 69.8 °F 94% 29.88 in 1.8 mi Calm Calm - N/A   Overcast
9:40 PM 71.6 °F 69.8 °F 94% 29.88 in 3.0 mi Calm Calm - N/A   Overcast
9:52 PM 71.1 °F 70.0 °F 96% 29.88 in 7.0 mi Calm Calm - N/A   Scattered Clouds
10:52 PM 71.1 °F 70.0 °F 96% 29.88 in 8.0 mi Calm Calm - 0.01 in Rain Light Rain
11:20 PM 68.0 °F 68.0 °F 100% 29.89 in 3.0 mi Calm Calm - 0.00 in   Overcast
11:24 PM 68.0 °F 66.2 °F 94% 29.89 in 1.8 mi Calm Calm - 0.00 in   Overcast
11:44 PM 68.0 °F 66.2 °F 94% 29.89 in 2.0 mi South 4.6 mph - 0.02 in Rain , Thunderstorm Light Rain
11:52 PM 69.1 °F 68.0 °F 96% 29.89 in 2.5 mi South 3.5 mph - 0.02 in Rain , Thunderstorm Light Rain